FENGYUN 1C DEB *

Satellite information

Favourite Embed

Satellite Type and Status

DEBRISIN ORBIT

Key statistics

Satellite FENGYUN 1C DEB * at a glance.

Uptime

9495

Days in orbit

Revolutions

≈ 14.4

Per day

Orbit

SSO

Sun Synchronous Orbit

Inclination

99.0

Latest

Satellite identification and parameters

Extended collection of information and parameters for FENGYUN 1C DEB *.

Object identification

Identified? True

Debris? True

Object name: FENGYUN 1C DEB *

International designator: 1999-025FBB

Object number (NORAD): 47025

Object ID (CCSDS): 47025

Country: PEOPLES REPUBLIC OF CHINA (PRC)

Current information (Y/N): Y

RCS size: SMALL

Orbital parameters

Period: 99.794 minutes

Inclination: 99.0491 deg

SMA: 7126.83 km

Apoapsis: 777.436 km

Periapsis: 719.954 km

RAAN: 320.5564 deg

Eccentricy: 0.0040328

Argument of periapsis: 288.2744 deg

Mean anomaly: 90.2743 deg

Mean motion: 14.42972819 rev/day

Mean motion (dot): 0.00007031 rev/day2

B* drag term: 0.0020934 1/REarth

Two-line elements (TLE)

Creation date: May 8, 2025, 3:01 a.m.

Reference frame: TEME

Reference center: EARTH

Epoch: May 7, 2025, 7:05 p.m. UTC

TLE line 0: 0 FENGYUN 1C DEB *

TLE line 1: 1 47025U 99025FBB 25127.79575190 .00007031 00000-0 20934-2 0 9994

TLE line 2: 2 47025 99.0491 320.5564 0040328 288.2744 90.2743 14.42972819595819

Live tracking on map

Real-time ground track for satellite FENGYUN 1C DEB *.

In-orbit conjunctions

A list of the most updated potential collisions computed for object FENGYUN 1C DEB *.

Target Orbit TCA Probability of collision Miss distance Type
IRIDIUM 920 LEO 2025-02-10 07:29:09 0.0009828628 203.0 (m) PAYLOAD
FEDSAT SSO 2024-11-25 00:05:34 0.0001477451 862.0 (m) PAYLOAD
SL-16 DEB LEO 2024-11-15 02:39:48 0.0001598799 169.0 (m) DEBRIS
SL-16 DEB LEO 2024-11-15 01:50:12 0.0001514968 835.0 (m) DEBRIS
CZ-6A DEB LEO 2024-11-14 08:46:57 0.0001571144 775.0 (m) DEBRIS

Associated space launch

Chinese polar orbiting meteorological satellite

FENGYUN 1C DEB * was lifted into orbit during the mission ‘Long March 4B | Feng Yun 1C’, on board a Long March 4B space rocket.

The launch took place on May 10, 1999, 1:33 a.m. from Launch Complex 7.

For more information about the launch, click the button.

Launch to space Long March 4B | Feng Yun 1C
Long March 4B | Feng Yun 1C

Agency: N/A

Status: Launch Successful

Launch date: May 10, 1999, 1:33 a.m. UTC

Rocket: Long March 4B

Launch pad: Launch Complex 7

Location: Taiyuan Satellite Launch Center, People's Republic of China

...

Latest news about this satellite

There are no fresh news available about this satellite. Check back as we update our databases every day.


Newsletter sign-up

Weekly statistics, charts and insights to help you stay on top of the space industry.